Overview Statistics Trail Chart Weather Telemetry Raw packets
 

This is the latest recevied weather packets stored in our database for station/object SV9TNF-51. If no packets are shown the sender has not sent any weather packets the latest 10 day(s).

<< 43 44 45 46 47 48 49 >>
Time Temp. Humidity Pressure Rain* Wind** Luminosity Snow
1788379134 25° C 69% 1011.5 hPa 0 mm 6.71 m/s, 338° - -
1788378834 25° C 69% 1011.5 hPa 0 mm 6.26 m/s, 341° - -
1788378534 25.56° C 69% 1011.5 hPa 0 mm 8.05 m/s, 345° - -
1788378233 25° C 69% 1011.5 hPa 0 mm 7.15 m/s, 335° - -
1788377933 25° C 69% 1011.5 hPa 0 mm 5.81 m/s, 334° - -
1788377633 25.56° C 70% 1011.5 hPa 0 mm 5.81 m/s, 354° - -
1788377333 25.56° C 69% 1011.5 hPa 0 mm 5.81 m/s, 358° - -
1788377033 25.56° C 69% 1011.5 hPa 0 mm 4.92 m/s, 328° - -
1788376733 25° C 70% 1011.5 hPa 0 mm 5.36 m/s, 319° - -
1788376433 25° C 70% 1011.5 hPa 0 mm 4.92 m/s, 346° - -
1788376133 25° C 71% 1011.5 hPa 0 mm 5.36 m/s, 342° - -
1788375833 25.56° C 72% 1011.5 hPa 0 mm 5.36 m/s, 332° - -
1788375533 25° C 73% 1011.5 hPa 0 mm 6.71 m/s, 327° - -
1788375233 25.56° C 73% 1011.5 hPa 0 mm 4.47 m/s, 352° - -
1788374933 25° C 72% 1011.5 hPa 0 mm 2.68 m/s, 329° - -
1788374633 25.56° C 73% 1011.5 hPa 0 mm 3.58 m/s, 335° - -
1788374332 25.56° C 73% 1011.5 hPa 0 mm 3.58 m/s, 166° - -
1788374056 25.56° C 72% 1011.5 hPa 0 mm 4.02 m/s, 337° - -
1788373732 25.56° C 72% 1011.5 hPa 0 mm 3.58 m/s, 356° - -
1788373432 26.11° C 71% 1011.5 hPa 0 mm 2.24 m/s, 90° - -
1788373132 26.11° C 71% 1011.5 hPa 0 mm 1.79 m/s, 78° - -
1788372832 26.11° C 71% 1011.5 hPa 0 mm 2.24 m/s, 103° - -
1788372531 26.11° C 71% 1011.5 hPa 0 mm 0.89 m/s, 134° - -
1788372231 26.67° C 71% 1011.5 hPa 0 mm 1.34 m/s, 134° - -
1788371932 26.67° C 70% 1011.2 hPa 0 mm 3.58 m/s, 75° - -

* Rain latest hour (hover to see other rain measurements)
** Current wind speed in m/s (hover to see current wind gust speed)